Flag for Australia Weather past 2 weeks in Launceston, Tasmania, Australia

Now
48 °F

Overcast.


Feels Like: 43 °F
Forecast: 38 / 58 °F
Wind: 13 mph from Southeast

Location: Launceston Airport

Current Time: Aug 31, 2015 at 7:48:28 PM

Latest Report: Aug 31, 2015 at 7:00 PM


Visibility: N/A

Pressure: 30.04 "Hg

Humidity: 71%

Dew point: 39 °F

Location of LauncestonLocation

Historic Weather in Launceston — Graph

°F

Launceston temperature yesterday

Maximum temperature yesterday: 52 °F (at 2:30 PM)
Minimum temperature yesterday: 36 °F (at 3:30 AM)
Average temperature yesterday: 43 °F

Past Weeks' High & Low Weather Summary

 TemperatureHumidityPressure
High57 °F (Aug 21, 12:00 PM)100% (Aug 20, 1:30 AM)30.45 "Hg (Aug 20, 1:30 AM)
Low27 °F (Aug 18, 2:00 AM)37% (Aug 17, 1:30 PM)29.59 "Hg (Aug 17, 1:30 AM)
Average43 °F75%30.13 "Hg
* Reported Aug 16 6:00 PM — Aug 31 6:30 PM, Launceston, Weather by CustomWeather, © 2015

Note: Actual official high and low records may vary slightly from our data, if they occured in-between our weather recording intervals... More about our weather records

Advertising

Launceston weather history for previous 24 hours

 ConditionsComfort  
Time TempWeatherWind HumidityBarometerVisibility
6:30 PM
Mon, Aug 31
48 °FOvercast.9 mph71%30.04 "HgN/A
6:00 PM50 °FOvercast.9 mph67%30.04 "HgN/A
5:30 PM50 °FPassing clouds.14 mph67%30.04 "HgN/A
5:00 PM52 °FOvercast.16 mph58%30.04 "HgN/A
4:30 PM54 °FOvercast.15 mph58%30.04 "HgN/A
4:00 PM54 °FSunny.15 mph58%30.04 "HgN/A
3:30 PM54 °FSunny.16 mph54%30.04 "HgN/A
3:00 PM54 °FScattered clouds.16 mph54%30.04 "HgN/A
2:30 PM55 °FScattered clouds.13 mph51%30.04 "HgN/A
2:00 PM54 °FSunny.13 mph54%30.04 "HgN/A
1:30 PM55 °FScattered clouds.13 mph55%30.07 "HgN/A
1:00 PM54 °FSunny.13 mph51%30.07 "HgN/A
12:30 PM52 °FScattered clouds.10 mph54%30.09 "HgN/A
12:00 PM52 °FOvercast.13 mph58%30.09 "HgN/A
11:30 AM50 °FOvercast.15 mph58%30.12 "HgN/A
11:00 AM50 °FMore clouds than sun.16 mph58%30.12 "HgN/A
10:30 AM52 °FBroken clouds.13 mph67%30.12 "HgN/A
10:00 AM48 °FBroken clouds.14 mph76%30.12 "HgN/A
9:00 AM45 °FSunny.13 mph81%30.15 "HgN/A
8:30 AM43 °FSunny.10 mph87%30.15 "HgN/A
8:00 AM41 °FScattered clouds.9 mph93%30.15 "HgN/A
7:30 AM37 °FScattered clouds.8 mph93%30.15 "HgN/A
7:00 AM36 °FSunny.9 mph93%30.12 "HgN/A
6:30 AM36 °FSunny.8 mph93%30.12 "HgN/A
6:00 AM36 °FSunny.8 mph93%30.12 "HgN/A
5:30 AM36 °FClear.9 mph93%30.12 "HgN/A
5:00 AM36 °FClear.8 mph93%30.15 "HgN/A
4:00 AM37 °FPassing clouds.10 mph93%30.15 "HgN/A
3:30 AM37 °FPassing clouds.10 mph93%30.15 "HgN/A
3:00 AM39 °FPassing clouds.12 mph87%30.15 "HgN/A
2:30 AM39 °FClear.9 mph87%30.15 "HgN/A
2:00 AM41 °FPassing clouds.14 mph87%30.15 "HgN/A
1:30 AM41 °FMostly cloudy.8 mph93%30.18 "HgN/A
1:00 AM41 °FOvercast.6 mph87%30.18 "HgN/A
12:30 AM41 °FOvercast.7 mph93%30.18 "HgN/A
12:00 AM41 °FOvercast.7 mph93%30.18 "HgN/A
11:30 PM
Sun, Aug 30
43 °FMostly cloudy.10 mph81%30.18 "HgN/A
11:00 PM43 °FMostly cloudy.10 mph81%30.21 "HgN/A
10:30 PM39 °FPartly cloudy.8 mph87%30.21 "HgN/A
10:00 PM43 °FOvercast.10 mph81%30.21 "HgN/A
9:30 PM41 °FPassing clouds.12 mph81%30.21 "HgN/A
9:00 PM41 °FPassing clouds.12 mph81%30.21 "HgN/A
8:30 PM43 °FClear.15 mph76%30.21 "HgN/A
8:00 PM45 °FPassing clouds.15 mph71%30.21 "HgN/A
7:30 PM45 °FOvercast.16 mph71%30.21 "HgN/A
7:00 PM46 °FPassing clouds.14 mph62%30.18 "HgN/A
Weather by CustomWeather, © 2015

See weather overviewHow to use our weather pages